Time,TemperatureF,DewpointF,PressureIn,WindDirection,WindDirectionDegrees,WindSpeedMPH,WindSpeedGustMPH,Humidity,HourlyPrecipIn,Conditions,Clouds,dailyrainin,SoftwareType,DateUTC
2013-12-04 00:03:00,57.7,48.8,29.34,North,358,6.7,6.9,72,0.00,RA,,0.00,WeatherDisplay:10.37,2013-12-04 06:03:00,
2013-12-04 00:08:00,57.6,48.6,29.34,North,358,6.7,6.9,72,0.00,RA,,0.00,WeatherDisplay:10.37,2013-12-04 06:08:00,
2013-12-04 00:13:00,57.6,49.0,29.33,North,358,6.7,6.9,73,0.00,CLR,,0.00,WeatherDisplay:10.37,2013-12-04 06:13:00,
2013-12-04 00:18:00,57.4,49.2,29.34,North,358,6.7,6.9,74,0.00,CLR,,0.00,WeatherDisplay:10.37,2013-12-04 06:18:00,
2013-12-04 00:23:00,57.4,49.2,29.34,North,358,6.7,6.9,74,0.00,CLR,,0.00,WeatherDisplay:10.37,2013-12-04 06:23:00,
2013-12-04 00:28:00,57.2,49.0,29.33,North,358,6.7,6.9,74,0.00,CLR,,0.00,WeatherDisplay:10.37,2013-12-04 06:28:00,
2013-12-04 00:33:00,57.2,49.0,29.34,North,358,6.7,6.9,74,0.00,CLR,,0.00,WeatherDisplay:10.37,2013-12-04 06:33:00,
2013-12-04 00:38:00,57.2,49.0,29.33,North,358,6.7,6.9,74,0.00,CLR,,0.00,WeatherDisplay:10.37,2013-12-04 06:38:00,
2013-12-04 00:43:00,57.0,49.2,29.33,North,358,6.7,6.9,75,0.00,CLR,,0.00,WeatherDisplay:10.37,2013-12-04 06:43:00,
2013-12-04 00:48:00,57.0,49.5,29.33,North,358,6.7,6.9,76,0.00,CLR,,0.00,WeatherDisplay:10.37,2013-12-04 06:48:00,
2013-12-04 00:53:00,56.8,49.4,29.33,North,358,6.7,6.9,76,0.00,CLR,,0.00,WeatherDisplay:10.37,2013-12-04 06:53:00,
2013-12-04 00:58:00,56.8,50.1,29.33,North,358,6.7,6.9,78,0.00,CLR,,0.00,WeatherDisplay:10.37,2013-12-04 06:58:00,
2013-12-04 01:03:00,57.0,50.2,29.33,North,358,6.7,6.9,78,0.00,CLR,,0.00,WeatherDisplay:10.37,2013-12-04 07:03:00,
2013-12-04 01:08:00,57.0,50.6,29.33,North,358,6.7,6.9,79,0.00,CLR,,0.00,WeatherDisplay:10.37,2013-12-04 07:08:00,
2013-12-04 01:13:00,57.0,50.2,29.33,North,358,6.7,6.9,78,0.00,CLR,,0.00,WeatherDisplay:10.37,2013-12-04 07:13:00,
2013-12-04 01:18:00,56.8,50.4,29.33,North,358,6.7,6.9,79,0.00,CLR,,0.00,WeatherDisplay:10.37,2013-12-04 07:18:00,
2013-12-04 01:23:00,56.8,50.4,29.33,North,358,6.7,6.9,79,0.00,CLR,,0.00,WeatherDisplay:10.37,2013-12-04 07:23:00,
2013-12-04 01:28:00,56.8,50.7,29.33,North,358,6.7,6.9,80,0.00,CLR,,0.00,WeatherDisplay:10.37,2013-12-04 07:28:00,
2013-12-04 01:33:00,56.8,50.7,29.33,North,358,6.7,6.9,80,0.00,CLR,,0.00,WeatherDisplay:10.37,2013-12-04 07:33:00,
2013-12-04 01:38:00,57.0,50.9,29.33,North,358,6.7,6.9,80,0.00,CLR,,0.00,WeatherDisplay:10.37,2013-12-04 07:38:00,
2013-12-04 01:43:00,57.0,50.9,29.33,North,358,6.7,6.9,80,0.00,CLR,,0.00,WeatherDisplay:10.37,2013-12-04 07:43:00,
2013-12-04 01:48:00,56.8,51.1,29.33,North,358,6.7,6.9,81,0.00,CLR,,0.00,WeatherDisplay:10.37,2013-12-04 07:48:00,
2013-12-04 01:53:00,56.8,51.1,29.34,North,358,6.7,6.9,81,0.00,CLR,,0.00,WeatherDisplay:10.37,2013-12-04 07:53:00,
2013-12-04 01:58:00,56.8,51.1,29.34,North,358,6.7,6.9,81,0.00,CLR,,0.00,WeatherDisplay:10.37,2013-12-04 07:58:00,
2013-12-04 02:03:00,56.8,51.1,29.34,North,358,6.7,6.9,81,0.00,CLR,,0.00,WeatherDisplay:10.37,2013-12-04 08:03:00,
2013-12-04 02:08:00,56.8,51.4,29.33,North,358,6.7,6.9,82,0.00,CLR,,0.00,WeatherDisplay:10.37,2013-12-04 08:08:00,
2013-12-04 02:13:00,56.8,51.1,29.33,North,358,6.7,6.9,81,0.00,CLR,,0.00,WeatherDisplay:10.37,2013-12-04 08:13:00,
2013-12-04 02:18:00,57.0,51.6,29.33,North,358,6.7,6.9,82,0.00,CLR,,0.00,WeatherDisplay:10.37,2013-12-04 08:18:00,
2013-12-04 02:23:00,57.0,51.6,29.34,North,358,6.7,6.9,82,0.00,CLR,,0.00,WeatherDisplay:10.37,2013-12-04 08:23:00,
2013-12-04 02:28:00,57.2,52.1,29.34,North,358,6.7,6.9,83,0.00,CLR,,0.00,WeatherDisplay:10.37,2013-12-04 08:28:00,
2013-12-04 02:33:00,57.2,51.8,29.34,North,358,6.7,6.9,82,0.00,CLR,,0.00,WeatherDisplay:10.37,2013-12-04 08:33:00,
2013-12-04 02:38:00,57.2,51.8,29.33,North,358,6.7,6.9,82,0.00,CLR,,0.00,WeatherDisplay:10.37,2013-12-04 08:38:00,
2013-12-04 02:43:00,57.0,51.6,29.34,North,358,6.7,6.9,82,0.00,CLR,,0.00,WeatherDisplay:10.37,2013-12-04 08:43:00,
2013-12-04 02:48:00,57.0,51.9,29.34,North,358,6.7,6.9,83,0.00,CLR,,0.00,WeatherDisplay:10.37,2013-12-04 08:48:00,
2013-12-04 02:53:00,56.8,51.7,29.34,North,358,6.7,6.9,83,0.00,CLR,,0.00,WeatherDisplay:10.37,2013-12-04 08:53:00,
2013-12-04 02:58:00,56.8,51.7,29.34,North,358,6.7,6.9,83,0.00,CLR,,0.00,WeatherDisplay:10.37,2013-12-04 08:58:00,
2013-12-04 03:03:00,56.7,51.6,29.34,North,358,6.7,6.9,83,0.00,CLR,,0.00,WeatherDisplay:10.37,2013-12-04 09:03:00,
2013-12-04 03:08:00,56.7,51.6,29.34,North,358,6.7,6.9,83,0.00,CLR,,0.00,WeatherDisplay:10.37,2013-12-04 09:08:00,
2013-12-04 03:13:00,56.5,51.7,29.34,North,358,6.7,6.9,84,0.00,CLR,,0.00,WeatherDisplay:10.37,2013-12-04 09:13:00,
2013-12-04 03:18:00,56.5,52.0,29.34,North,358,6.7,6.9,85,0.00,CLR,,0.00,WeatherDisplay:10.37,2013-12-04 09:18:00,
2013-12-04 03:23:00,56.5,51.7,29.35,North,358,6.7,6.9,84,0.00,CLR,,0.00,WeatherDisplay:10.37,2013-12-04 09:23:00,
2013-12-04 03:28:00,56.5,51.4,29.35,North,358,6.7,6.9,83,0.00,CLR,,0.00,WeatherDisplay:10.37,2013-12-04 09:28:00,
2013-12-04 03:33:00,56.3,51.5,29.35,North,358,6.7,6.9,84,0.00,CLR,,0.00,WeatherDisplay:10.37,2013-12-04 09:33:00,
2013-12-04 03:38:00,56.3,51.2,29.35,North,358,6.7,6.9,83,0.00,CLR,,0.00,WeatherDisplay:10.37,2013-12-04 09:38:00,
2013-12-04 03:43:00,56.1,51.0,29.35,North,358,6.7,6.9,83,0.00,CLR,,0.00,WeatherDisplay:10.37,2013-12-04 09:43:00,
2013-12-04 03:48:00,56.1,51.4,29.35,North,358,6.7,6.9,84,0.00,CLR,,0.00,WeatherDisplay:10.37,2013-12-04 09:48:00,
2013-12-04 03:53:00,55.9,51.2,29.35,North,358,6.7,6.9,84,0.00,CLR,,0.00,WeatherDisplay:10.37,2013-12-04 09:53:00,
2013-12-04 03:58:00,55.8,51.0,29.35,North,358,6.7,6.9,84,0.00,CLR,,0.00,WeatherDisplay:10.37,2013-12-04 09:58:00,
2013-12-04 04:03:00,55.8,51.0,29.35,North,358,6.7,6.9,84,0.00,CLR,,0.00,WeatherDisplay:10.37,2013-12-04 10:03:00,
2013-12-04 04:08:00,55.8,51.0,29.35,North,358,6.7,6.9,84,0.00,CLR,,0.00,WeatherDisplay:10.37,2013-12-04 10:08:00,
2013-12-04 04:13:00,55.6,50.8,29.35,North,358,6.7,6.9,84,0.00,CLR,,0.00,WeatherDisplay:10.37,2013-12-04 10:13:00,
2013-12-04 04:18:00,55.4,51.0,29.35,North,358,6.7,6.9,85,0.00,CLR,,0.00,WeatherDisplay:10.37,2013-12-04 10:18:00,
2013-12-04 04:23:00,55.4,51.3,29.35,North,358,6.7,6.9,86,0.00,CLR,,0.00,WeatherDisplay:10.37,2013-12-04 10:23:00,
2013-12-04 04:28:00,55.4,51.3,29.36,North,358,6.7,6.9,86,0.00,CLR,,0.00,WeatherDisplay:10.37,2013-12-04 10:28:00,
2013-12-04 04:33:00,55.2,51.1,29.36,North,358,6.7,6.9,86,0.00,CLR,,0.00,WeatherDisplay:10.37,2013-12-04 10:33:00,
2013-12-04 04:38:00,55.2,51.1,29.35,North,358,6.7,6.9,86,0.00,CLR,,0.00,WeatherDisplay:10.37,2013-12-04 10:38:00,
2013-12-04 04:43:00,55.2,51.1,29.36,North,358,6.7,6.9,86,0.00,CLR,,0.00,WeatherDisplay:10.37,2013-12-04 10:43:00,
2013-12-04 04:48:00,55.2,51.1,29.36,North,358,6.7,6.9,86,0.00,CLR,,0.00,WeatherDisplay:10.37,2013-12-04 10:48:00,
2013-12-04 04:53:00,55.2,51.1,29.36,North,358,6.7,6.9,86,0.00,CLR,,0.00,WeatherDisplay:10.37,2013-12-04 10:53:00,
2013-12-04 04:58:00,55.2,51.1,29.36,North,358,6.7,6.9,86,0.00,CLR,,0.00,WeatherDisplay:10.37,2013-12-04 10:58:00,
2013-12-04 05:03:00,55.4,51.3,29.36,North,358,6.7,6.9,86,0.00,CLR,,0.00,WeatherDisplay:10.37,2013-12-04 11:03:00,
2013-12-04 05:08:00,55.4,51.3,29.36,North,358,6.7,6.9,86,0.00,CLR,,0.00,WeatherDisplay:10.37,2013-12-04 11:08:00,
2013-12-04 05:13:00,55.6,51.5,29.36,North,358,6.7,6.9,86,0.00,CLR,,0.00,WeatherDisplay:10.37,2013-12-04 11:13:00,
2013-12-04 05:18:00,55.6,51.5,29.36,North,358,6.7,6.9,86,0.00,CLR,,0.00,WeatherDisplay:10.37,2013-12-04 11:18:00,
2013-12-04 05:23:00,55.6,51.5,29.36,North,358,6.7,6.9,86,0.00,CLR,,0.00,WeatherDisplay:10.37,2013-12-04 11:23:00,
2013-12-04 05:28:00,55.6,51.5,29.37,North,358,6.7,6.9,86,0.00,CLR,,0.00,WeatherDisplay:10.37,2013-12-04 11:28:00,
2013-12-04 05:34:00,55.4,51.3,29.37,North,358,6.7,6.9,86,0.00,CLR,,0.00,WeatherDisplay:10.37,2013-12-04 11:34:00,
2013-12-04 05:39:00,55.4,51.3,29.37,North,358,6.7,6.9,86,0.00,CLR,,0.00,WeatherDisplay:10.37,2013-12-04 11:39:00,
2013-12-04 05:44:00,55.2,51.1,29.38,North,358,6.7,6.9,86,0.00,CLR,,0.00,WeatherDisplay:10.37,2013-12-04 11:44:00,
2013-12-04 05:49:00,55.2,51.1,29.38,North,358,6.7,6.9,86,0.00,CLR,,0.00,WeatherDisplay:10.37,2013-12-04 11:49:00,
2013-12-04 05:54:00,55.0,50.9,29.38,North,358,6.7,6.9,86,0.00,CLR,,0.00,WeatherDisplay:10.37,2013-12-04 11:54:00,
2013-12-04 05:59:00,55.0,50.9,29.38,North,358,6.7,6.9,86,0.00,CLR,,0.00,WeatherDisplay:10.37,2013-12-04 11:59:00,
2013-12-04 06:04:00,54.9,50.8,29.38,North,358,6.7,6.9,86,0.00,CLR,,0.00,WeatherDisplay:10.37,2013-12-04 12:04:00,
2013-12-04 06:09:00,54.9,50.8,29.38,North,358,6.7,6.9,86,0.00,CLR,,0.00,WeatherDisplay:10.37,2013-12-04 12:09:00,
2013-12-04 06:14:00,54.9,50.8,29.38,North,358,6.7,6.9,86,0.00,CLR,,0.00,WeatherDisplay:10.37,2013-12-04 12:14:00,
2013-12-04 06:19:00,54.9,50.8,29.38,North,358,6.7,6.9,86,0.00,CLR,,0.00,WeatherDisplay:10.37,2013-12-04 12:19:00,
2013-12-04 06:24:00,54.7,50.6,29.38,North,358,6.7,6.9,86,0.00,CLR,,0.00,WeatherDisplay:10.37,2013-12-04 12:24:00,
2013-12-04 06:29:00,54.7,50.6,29.39,North,358,6.7,6.9,86,0.00,CLR,,0.00,WeatherDisplay:10.37,2013-12-04 12:29:00,
2013-12-04 06:34:00,54.7,50.6,29.38,North,358,6.7,6.9,86,0.00,CLR,,0.00,WeatherDisplay:10.37,2013-12-04 12:34:00,
2013-12-04 06:39:00,54.7,50.6,29.39,North,358,6.7,6.9,86,0.00,CLR,,0.00,WeatherDisplay:10.37,2013-12-04 12:39:00,
2013-12-04 06:44:00,54.5,50.4,29.39,North,358,6.7,6.9,86,0.00,CLR,,0.00,WeatherDisplay:10.37,2013-12-04 12:44:00,
2013-12-04 06:49:00,54.5,50.7,29.40,North,358,6.7,6.9,87,0.00,CLR,,0.00,WeatherDisplay:10.37,2013-12-04 12:49:00,
2013-12-04 06:54:00,54.5,50.7,29.40,North,358,6.7,6.9,87,0.00,CLR,,0.00,WeatherDisplay:10.37,2013-12-04 12:54:00,
2013-12-04 06:59:00,54.7,50.9,29.40,North,358,6.7,6.9,87,0.00,CLR,,0.00,WeatherDisplay:10.37,2013-12-04 12:59:00,
2013-12-04 07:04:00,54.7,50.9,29.40,North,358,6.7,6.9,87,0.00,CLR,,0.00,WeatherDisplay:10.37,2013-12-04 13:04:00,
2013-12-04 07:09:00,54.7,50.9,29.41,North,358,6.7,6.9,87,0.00,CLR,,0.00,WeatherDisplay:10.37,2013-12-04 13:09:00,
2013-12-04 07:14:00,54.7,50.9,29.41,North,358,6.7,6.9,87,0.00,CLR,,0.00,WeatherDisplay:10.37,2013-12-04 13:14:00,
2013-12-04 07:19:00,54.7,51.2,29.41,North,358,6.7,6.9,88,0.00,CLR,,0.00,WeatherDisplay:10.37,2013-12-04 13:19:00,
2013-12-04 07:24:00,54.9,51.4,29.41,North,358,6.7,6.9,88,0.00,CLR,,0.00,WeatherDisplay:10.37,2013-12-04 13:24:00,
2013-12-04 07:29:00,55.0,51.5,29.41,North,358,6.7,6.9,88,0.00,CLR,,0.00,WeatherDisplay:10.37,2013-12-04 13:29:00,
2013-12-04 07:34:00,55.0,51.5,29.42,North,358,6.7,6.9,88,0.00,CLR,,0.00,WeatherDisplay:10.37,2013-12-04 13:34:00,
2013-12-04 07:39:00,55.0,51.5,29.43,North,358,6.7,6.9,88,0.00,CLR,,0.00,WeatherDisplay:10.37,2013-12-04 13:39:00,
2013-12-04 07:44:00,55.2,51.7,29.43,North,358,6.7,6.9,88,0.00,CLR,,0.00,WeatherDisplay:10.37,2013-12-04 13:44:00,
2013-12-04 07:49:00,55.4,52.2,29.44,North,358,6.7,6.9,89,0.00,CLR,,0.00,WeatherDisplay:10.37,2013-12-04 13:49:00,
2013-12-04 07:54:00,55.6,52.4,29.43,North,358,6.7,6.9,89,0.00,CLR,,0.00,WeatherDisplay:10.37,2013-12-04 13:54:00,
2013-12-04 07:59:00,55.8,52.6,29.43,North,358,6.7,6.9,89,0.00,CLR,,0.00,WeatherDisplay:10.37,2013-12-04 13:59:00,
2013-12-04 08:04:00,55.8,52.6,29.43,North,358,6.7,6.9,89,0.00,CLR,,0.00,WeatherDisplay:10.37,2013-12-04 14:04:00,
2013-12-04 08:09:00,55.8,52.6,29.43,North,358,6.7,6.9,89,0.00,CLR,,0.00,WeatherDisplay:10.37,2013-12-04 14:09:00,
2013-12-04 08:14:00,55.9,52.7,29.43,North,358,6.7,6.9,89,0.00,CLR,,0.00,WeatherDisplay:10.37,2013-12-04 14:14:00,
2013-12-04 08:19:00,56.1,53.2,29.44,North,358,6.7,6.9,90,0.00,CLR,,0.00,WeatherDisplay:10.37,2013-12-04 14:19:00,
2013-12-04 08:25:00,56.5,53.6,29.44,North,358,6.7,6.9,90,0.00,CLR,,0.00,WeatherDisplay:10.37,2013-12-04 14:25:00,
2013-12-04 08:30:00,56.5,53.6,29.44,North,358,6.7,6.9,90,0.00,CLR,,0.00,WeatherDisplay:10.37,2013-12-04 14:30:00,
2013-12-04 08:35:00,56.8,54.2,29.44,North,358,6.7,6.9,91,0.00,CLR,,0.00,WeatherDisplay:10.37,2013-12-04 14:35:00,
2013-12-04 08:40:00,57.2,54.6,29.44,North,358,6.7,6.9,91,0.00,CLR,,0.00,WeatherDisplay:10.37,2013-12-04 14:40:00,
2013-12-04 08:45:00,57.6,55.0,29.44,North,358,6.7,6.9,91,0.00,CLR,,0.00,WeatherDisplay:10.37,2013-12-04 14:45:00,
2013-12-04 08:50:00,57.9,55.6,29.45,North,358,6.7,6.9,92,0.00,CLR,,0.00,WeatherDisplay:10.37,2013-12-04 14:50:00,
2013-12-04 08:55:00,58.5,56.1,29.45,North,358,6.7,6.9,92,0.00,CLR,,0.00,WeatherDisplay:10.37,2013-12-04 14:55:00,
2013-12-04 09:00:00,58.8,56.5,29.45,North,358,6.7,6.9,92,0.00,CLR,,0.00,WeatherDisplay:10.37,2013-12-04 15:00:00,
2013-12-04 09:05:00,59.2,57.2,29.45,North,358,6.7,6.9,93,0.00,CLR,,0.00,WeatherDisplay:10.37,2013-12-04 15:05:00,
2013-12-04 09:10:00,59.7,57.7,29.45,North,358,6.7,6.9,93,0.00,CLR,,0.00,WeatherDisplay:10.37,2013-12-04 15:10:00,
2013-12-04 09:15:00,60.1,58.0,29.45,North,358,6.7,6.9,93,0.00,CLR,,0.00,WeatherDisplay:10.37,2013-12-04 15:15:00,
2013-12-04 09:20:00,60.4,58.4,29.45,North,358,6.7,6.9,93,0.00,CLR,,0.00,WeatherDisplay:10.37,2013-12-04 15:20:00,
2013-12-04 09:25:00,60.8,58.8,29.46,North,358,6.7,6.9,93,0.00,CLR,,0.00,WeatherDisplay:10.37,2013-12-04 15:25:00,
2013-12-04 09:30:00,61.2,58.8,29.46,North,358,6.7,6.9,92,0.00,CLR,,0.00,WeatherDisplay:10.37,2013-12-04 15:30:00,
2013-12-04 09:35:00,61.3,59.0,29.46,North,358,6.7,6.9,92,0.00,CLR,,0.00,WeatherDisplay:10.37,2013-12-04 15:35:00,
2013-12-04 09:40:00,61.5,59.2,29.46,North,358,6.7,6.9,92,0.00,CLR,,0.00,WeatherDisplay:10.37,2013-12-04 15:40:00,
2013-12-04 09:45:00,61.5,58.9,29.46,North,358,6.7,6.9,91,0.00,CLR,,0.00,WeatherDisplay:10.37,2013-12-04 15:45:00,
2013-12-04 09:50:00,61.5,58.9,29.46,North,358,6.7,6.9,91,0.00,CLR,,0.00,WeatherDisplay:10.37,2013-12-04 15:50:00,
2013-12-04 09:55:00,61.5,58.9,29.46,North,358,6.7,6.9,91,0.00,CLR,,0.00,WeatherDisplay:10.37,2013-12-04 15:55:00,
2013-12-04 10:00:00,61.7,59.0,29.46,North,358,6.7,6.9,91,0.00,CLR,,0.00,WeatherDisplay:10.37,2013-12-04 16:00:00,
2013-12-04 10:05:00,62.1,59.1,29.46,North,358,6.7,6.9,90,0.00,CLR,,0.00,WeatherDisplay:10.37,2013-12-04 16:05:00,
2013-12-04 10:10:00,62.2,59.3,29.46,North,358,6.7,6.9,90,0.00,CLR,,0.00,WeatherDisplay:10.37,2013-12-04 16:10:00,
2013-12-04 10:15:00,62.4,59.4,29.46,North,358,6.7,6.9,90,0.00,CLR,,0.00,WeatherDisplay:10.37,2013-12-04 16:15:00,
2013-12-04 10:20:00,62.8,59.5,29.46,North,358,6.7,6.9,89,0.00,CLR,,0.00,WeatherDisplay:10.37,2013-12-04 16:20:00,
2013-12-04 10:25:00,63.3,60.0,29.46,North,358,6.7,6.9,89,0.00,CLR,,0.00,WeatherDisplay:10.37,2013-12-04 16:25:00,
2013-12-04 10:30:00,63.7,60.1,29.46,North,358,6.7,6.9,88,0.00,CLR,,0.00,WeatherDisplay:10.37,2013-12-04 16:30:00,
2013-12-04 10:35:00,64.0,60.1,29.46,North,358,6.7,6.9,87,0.00,CLR,,0.00,WeatherDisplay:10.37,2013-12-04 16:35:00,
2013-12-04 10:40:00,64.2,59.9,29.46,North,358,6.7,6.9,86,0.00,CLR,,0.00,WeatherDisplay:10.37,2013-12-04 16:40:00,
2013-12-04 10:45:00,64.4,60.1,29.46,North,358,6.7,6.9,86,0.00,CLR,,0.00,WeatherDisplay:10.37,2013-12-04 16:45:00,
2013-12-04 10:50:00,64.8,60.1,29.46,North,358,6.7,6.9,85,0.00,CLR,,0.00,WeatherDisplay:10.37,2013-12-04 16:50:00,
2013-12-04 10:55:00,64.9,60.3,29.46,North,358,6.7,6.9,85,0.00,CLR,,0.00,WeatherDisplay:10.37,2013-12-04 16:55:00,
2013-12-04 11:00:00,65.3,61.0,29.46,North,358,6.7,6.9,86,0.00,CLR,,0.00,WeatherDisplay:10.37,2013-12-04 17:00:00,
2013-12-04 11:05:00,65.7,61.4,29.46,North,358,6.7,6.9,86,0.00,CLR,,0.00,WeatherDisplay:10.37,2013-12-04 17:05:00,
2013-12-04 11:10:00,66.0,61.4,29.46,North,358,6.7,6.9,85,0.00,CLR,,0.00,WeatherDisplay:10.37,2013-12-04 17:10:00,
2013-12-04 11:15:00,66.4,61.4,29.46,North,358,6.7,6.9,84,0.00,CLR,,0.00,WeatherDisplay:10.37,2013-12-04 17:15:00,
2013-12-04 11:20:00,66.6,60.9,29.46,North,358,6.7,6.9,82,0.00,CLR,,0.00,WeatherDisplay:10.37,2013-12-04 17:20:00,
2013-12-04 11:25:00,66.9,61.2,29.46,North,358,6.7,6.9,82,0.00,CLR,,0.00,WeatherDisplay:10.37,2013-12-04 17:25:00,
2013-12-04 11:30:00,67.3,61.6,29.46,North,358,6.7,6.9,82,0.00,CLR,,0.00,WeatherDisplay:10.37,2013-12-04 17:30:00,
2013-12-04 11:35:00,67.6,61.6,29.46,North,358,6.7,6.9,81,0.00,CLR,,0.00,WeatherDisplay:10.37,2013-12-04 17:35:00,
2013-12-04 11:40:00,67.8,61.4,29.46,North,358,6.7,6.9,80,0.00,CLR,,0.00,WeatherDisplay:10.37,2013-12-04 17:40:00,
2013-12-04 11:45:00,68.0,61.6,29.46,North,358,6.7,6.9,80,0.00,CLR,,0.00,WeatherDisplay:10.37,2013-12-04 17:45:00,
2013-12-04 11:50:00,68.4,61.9,29.45,North,358,6.7,6.9,80,0.00,CLR,,0.00,WeatherDisplay:10.37,2013-12-04 17:50:00,
2013-12-04 11:55:00,68.7,61.9,29.45,North,358,6.7,6.9,79,0.00,CLR,,0.00,WeatherDisplay:10.37,2013-12-04 17:55:00,
2013-12-04 12:00:00,69.1,61.6,29.45,North,358,6.7,6.9,77,0.00,CLR,,0.00,WeatherDisplay:10.37,2013-12-04 18:00:00,
2013-12-04 12:05:00,69.4,61.5,29.45,North,358,6.7,6.9,76,0.00,CLR,,0.00,WeatherDisplay:10.37,2013-12-04 18:05:00,
2013-12-04 12:10:00,69.6,61.7,29.45,North,358,6.7,6.9,76,0.00,CLR,,0.00,WeatherDisplay:10.37,2013-12-04 18:10:00,
2013-12-04 12:15:00,69.8,61.9,29.44,North,358,6.7,6.9,76,0.00,CLR,,0.00,WeatherDisplay:10.37,2013-12-04 18:15:00,
2013-12-04 12:20:00,70.2,61.9,29.44,North,358,6.7,6.9,75,0.00,CLR,,0.00,WeatherDisplay:10.37,2013-12-04 18:20:00,
2013-12-04 12:25:00,70.5,61.8,29.44,North,358,6.7,6.9,74,0.00,CLR,,0.00,WeatherDisplay:10.37,2013-12-04 18:25:00,
2013-12-04 12:30:00,70.7,61.6,29.43,North,358,6.7,6.9,73,0.00,CLR,,0.00,WeatherDisplay:10.37,2013-12-04 18:30:00,
2013-12-04 12:35:00,71.1,61.6,29.43,North,358,6.7,6.9,72,0.00,CLR,,0.00,WeatherDisplay:10.37,2013-12-04 18:35:00,
2013-12-04 12:40:00,71.4,61.5,29.43,North,358,6.7,6.9,71,0.00,CLR,,0.00,WeatherDisplay:10.37,2013-12-04 18:40:00,
2013-12-04 12:45:00,71.8,61.5,29.42,North,358,6.7,6.9,70,0.00,CLR,,0.00,WeatherDisplay:10.37,2013-12-04 18:45:00,
2013-12-04 12:50:00,72.0,61.6,29.42,North,358,6.7,6.9,70,0.00,CLR,,0.00,WeatherDisplay:10.37,2013-12-04 18:50:00,
2013-12-04 12:55:00,72.1,61.0,29.42,North,358,6.7,6.9,68,0.00,CLR,,0.00,WeatherDisplay:10.37,2013-12-04 18:55:00,
2013-12-04 13:00:00,72.5,61.7,29.42,North,358,6.7,6.9,69,0.00,CLR,,0.00,WeatherDisplay:10.37,2013-12-04 19:00:00,
2013-12-04 13:05:00,72.7,61.5,29.42,North,358,6.7,6.9,68,0.00,CLR,,0.00,WeatherDisplay:10.37,2013-12-04 19:05:00,
2013-12-04 13:10:00,72.9,61.3,29.42,North,358,6.7,6.9,67,0.00,CLR,,0.00,WeatherDisplay:10.37,2013-12-04 19:10:00,
2013-12-04 13:15:00,73.0,61.0,29.41,North,358,6.7,6.9,66,0.00,CLR,,0.00,WeatherDisplay:10.37,2013-12-04 19:15:00,
2013-12-04 13:20:00,73.2,61.2,29.41,North,358,6.7,6.9,66,0.00,CLR,,0.00,WeatherDisplay:10.37,2013-12-04 19:20:00,
2013-12-04 13:25:00,73.4,61.3,29.42,North,358,6.7,6.9,66,0.00,CLR,,0.00,WeatherDisplay:10.37,2013-12-04 19:25:00,
2013-12-04 13:30:00,73.6,61.1,29.41,North,358,6.7,6.9,65,0.00,CLR,,0.00,WeatherDisplay:10.37,2013-12-04 19:30:00,
2013-12-04 13:35:00,73.8,60.4,29.41,North,358,6.7,6.9,63,0.00,CLR,,0.00,WeatherDisplay:10.37,2013-12-04 19:35:00,
2013-12-04 13:40:00,73.9,60.5,29.41,North,358,6.7,6.9,63,0.00,CLR,,0.00,WeatherDisplay:10.37,2013-12-04 19:40:00,
2013-12-04 13:45:00,74.3,60.4,29.41,North,358,6.7,6.9,62,0.00,CLR,,0.00,WeatherDisplay:10.37,2013-12-04 19:45:00,
2013-12-04 13:50:00,74.5,60.1,29.41,North,358,6.7,6.9,61,0.00,CLR,,0.00,WeatherDisplay:10.37,2013-12-04 19:50:00,
2013-12-04 13:55:00,74.8,60.9,29.41,North,358,6.7,6.9,62,0.00,CLR,,0.00,WeatherDisplay:10.37,2013-12-04 19:55:00,
2013-12-04 14:00:00,75.0,61.1,29.41,North,358,6.7,6.9,62,0.00,CLR,,0.00,WeatherDisplay:10.37,2013-12-04 20:00:00,
2013-12-04 14:06:00,75.4,61.5,29.41,North,358,6.7,6.9,62,0.00,CLR,,0.00,WeatherDisplay:10.37,2013-12-04 20:06:00,
2013-12-04 14:11:00,75.6,60.2,29.41,North,358,6.7,6.9,59,0.00,CLR,,0.00,WeatherDisplay:10.37,2013-12-04 20:11:00,
2013-12-04 14:16:00,75.7,60.9,29.41,North,358,6.7,6.9,60,0.00,CLR,,0.00,WeatherDisplay:10.37,2013-12-04 20:16:00,
2013-12-04 14:21:00,75.9,61.0,29.41,North,358,6.7,6.9,60,0.00,CLR,,0.00,WeatherDisplay:10.37,2013-12-04 20:21:00,
2013-12-04 14:26:00,75.9,61.0,29.41,North,358,6.7,6.9,60,0.00,CLR,,0.00,WeatherDisplay:10.37,2013-12-04 20:26:00,
2013-12-04 14:31:00,75.9,61.0,29.41,North,358,6.7,6.9,60,0.00,CLR,,0.00,WeatherDisplay:10.37,2013-12-04 20:31:00,
2013-12-04 14:36:00,76.3,61.4,29.41,North,358,6.7,6.9,60,0.00,CLR,,0.00,WeatherDisplay:10.37,2013-12-04 20:36:00,
2013-12-04 14:41:00,76.3,61.4,29.41,North,358,6.7,6.9,60,0.00,CLR,,0.00,WeatherDisplay:10.37,2013-12-04 20:41:00,
2013-12-04 14:46:00,76.6,61.2,29.42,North,358,6.7,6.9,59,0.00,CLR,,0.00,WeatherDisplay:10.37,2013-12-04 20:46:00,
2013-12-04 14:51:00,76.6,60.8,29.41,North,358,6.7,6.9,58,0.00,CLR,,0.00,WeatherDisplay:10.37,2013-12-04 20:51:00,
2013-12-04 14:56:00,76.6,61.2,29.42,North,358,6.7,6.9,59,0.00,CLR,,0.00,WeatherDisplay:10.37,2013-12-04 20:56:00,
2013-12-04 15:01:00,76.8,60.4,29.42,North,358,6.7,6.9,57,0.00,CLR,,0.00,WeatherDisplay:10.37,2013-12-04 21:01:00,
2013-12-04 15:06:00,77.0,59.6,29.41,North,358,6.7,6.9,55,0.00,CLR,,0.00,WeatherDisplay:10.37,2013-12-04 21:06:00,
2013-12-04 15:11:00,77.0,59.1,29.41,North,358,6.7,6.9,54,0.00,CLR,,0.00,WeatherDisplay:10.37,2013-12-04 21:11:00,
2013-12-04 15:16:00,76.8,58.9,29.41,North,358,6.7,6.9,54,0.00,CLR,,0.00,WeatherDisplay:10.37,2013-12-04 21:16:00,
2013-12-04 15:21:00,76.8,58.9,29.41,North,358,6.7,6.9,54,0.00,CLR,,0.00,WeatherDisplay:10.37,2013-12-04 21:21:00,
2013-12-04 15:26:00,77.0,59.6,29.41,North,358,6.7,6.9,55,0.00,CLR,,0.00,WeatherDisplay:10.37,2013-12-04 21:26:00,
2013-12-04 15:31:00,77.2,59.8,29.41,North,358,6.7,6.9,55,0.00,CLR,,0.00,WeatherDisplay:10.37,2013-12-04 21:31:00,
2013-12-04 15:36:00,77.4,60.4,29.41,North,358,6.7,6.9,56,0.00,CLR,,0.00,WeatherDisplay:10.37,2013-12-04 21:36:00,
2013-12-04 15:41:00,77.4,61.4,29.41,North,358,6.7,6.9,58,0.00,CLR,,0.00,WeatherDisplay:10.37,2013-12-04 21:41:00,
2013-12-04 15:46:00,77.4,61.4,29.41,North,358,6.7,6.9,58,0.00,CLR,,0.00,WeatherDisplay:10.37,2013-12-04 21:46:00,
2013-12-04 15:51:00,77.4,61.4,29.42,North,358,6.7,6.9,58,0.00,CLR,,0.00,WeatherDisplay:10.37,2013-12-04 21:51:00,
2013-12-04 15:56:00,77.4,61.4,29.42,North,358,6.7,6.9,58,0.00,CLR,,0.00,WeatherDisplay:10.37,2013-12-04 21:56:00,
2013-12-04 16:01:00,77.4,60.9,29.42,North,358,6.7,6.9,57,0.00,CLR,,0.00,WeatherDisplay:10.37,2013-12-04 22:01:00,
2013-12-04 16:06:00,77.4,60.9,29.43,North,358,6.7,6.9,57,0.00,CLR,,0.00,WeatherDisplay:10.37,2013-12-04 22:06:00,
2013-12-04 16:11:00,77.2,60.8,29.43,North,358,6.7,6.9,57,0.00,CLR,,0.00,WeatherDisplay:10.37,2013-12-04 22:11:00,
2013-12-04 16:16:00,77.0,61.1,29.43,North,358,6.7,6.9,58,0.00,CLR,,0.00,WeatherDisplay:10.37,2013-12-04 22:16:00,
2013-12-04 16:21:00,76.5,60.6,29.43,North,358,6.7,6.9,58,0.00,CLR,,0.00,WeatherDisplay:10.37,2013-12-04 22:21:00,
2013-12-04 16:26:00,76.1,60.7,29.43,North,358,6.7,6.9,59,0.00,CLR,,0.00,WeatherDisplay:10.37,2013-12-04 22:26:00,
2013-12-04 16:31:00,75.7,60.9,29.43,North,358,6.7,6.9,60,0.00,CLR,,0.00,WeatherDisplay:10.37,2013-12-04 22:31:00,
2013-12-04 16:36:00,75.4,60.5,29.43,North,358,6.7,6.9,60,0.00,CLR,,0.00,WeatherDisplay:10.37,2013-12-04 22:36:00,
2013-12-04 16:41:00,75.2,60.8,29.43,North,358,6.7,6.9,61,0.00,CLR,,0.00,WeatherDisplay:10.37,2013-12-04 22:41:00,
2013-12-04 16:46:00,74.8,60.5,29.43,North,358,6.7,6.9,61,0.00,CLR,,0.00,WeatherDisplay:10.37,2013-12-04 22:46:00,
2013-12-04 16:51:00,74.7,60.8,29.44,North,358,6.7,6.9,62,0.00,CLR,,0.00,WeatherDisplay:10.37,2013-12-04 22:51:00,
2013-12-04 16:56:00,74.3,60.4,29.44,North,358,6.7,6.9,62,0.00,CLR,,0.00,WeatherDisplay:10.37,2013-12-04 22:56:00,
2013-12-04 17:01:00,73.9,60.5,29.44,North,358,6.7,6.9,63,0.00,CLR,,0.00,WeatherDisplay:10.37,2013-12-04 23:01:00,
2013-12-04 17:06:00,73.8,60.4,29.44,North,358,6.7,6.9,63,0.00,CLR,,0.00,WeatherDisplay:10.37,2013-12-04 23:06:00,
2013-12-04 17:11:00,73.4,60.5,29.44,North,358,6.7,6.9,64,0.00,CLR,,0.00,WeatherDisplay:10.37,2013-12-04 23:11:00,
2013-12-04 17:16:00,73.2,61.2,29.45,North,358,6.7,6.9,66,0.00,CLR,,0.00,WeatherDisplay:10.37,2013-12-04 23:16:00,
2013-12-04 17:21:00,72.9,60.8,29.45,North,358,6.7,6.9,66,0.00,CLR,,0.00,WeatherDisplay:10.37,2013-12-04 23:21:00,
2013-12-04 17:26:00,72.7,61.1,29.45,North,358,6.7,6.9,67,0.00,CLR,,0.00,WeatherDisplay:10.37,2013-12-04 23:26:00,
2013-12-04 17:31:00,72.5,60.9,29.46,North,358,6.7,6.9,67,0.00,CLR,,0.00,WeatherDisplay:10.37,2013-12-04 23:31:00,
2013-12-04 17:36:00,72.3,61.2,29.46,North,358,6.7,6.9,68,0.00,CLR,,0.00,WeatherDisplay:10.37,2013-12-04 23:36:00,
2013-12-04 17:41:00,72.3,61.6,29.46,North,358,6.7,6.9,69,0.00,CLR,,0.00,WeatherDisplay:10.37,2013-12-04 23:41:00,
2013-12-04 17:46:00,72.0,61.6,29.46,North,358,6.7,6.9,70,0.00,CLR,,0.00,WeatherDisplay:10.37,2013-12-04 23:46:00,
2013-12-04 17:51:00,71.8,61.5,29.46,North,358,6.7,6.9,70,0.00,CLR,,0.00,WeatherDisplay:10.37,2013-12-04 23:51:00,
2013-12-04 17:56:00,71.6,60.9,29.47,North,358,6.7,6.9,69,0.00,CLR,,0.00,WeatherDisplay:10.37,2013-12-04 23:56:00,
2013-12-04 18:01:00,71.2,60.5,29.46,North,358,6.7,6.9,69,0.00,CLR,,0.00,WeatherDisplay:10.37,2013-12-05 00:01:00,
2013-12-04 18:06:00,71.1,60.8,29.47,North,358,6.7,6.9,70,0.00,CLR,,0.00,WeatherDisplay:10.37,2013-12-05 00:06:00,
2013-12-04 18:11:00,71.1,60.8,29.47,North,358,6.7,6.9,70,0.00,CLR,,0.00,WeatherDisplay:10.37,2013-12-05 00:11:00,
2013-12-04 18:16:00,70.9,60.6,29.47,North,358,6.7,6.9,70,0.00,CLR,,0.00,WeatherDisplay:10.37,2013-12-05 00:16:00,
2013-12-04 18:21:00,70.9,60.6,29.47,North,358,6.7,6.9,70,0.00,CLR,,0.00,WeatherDisplay:10.37,2013-12-05 00:21:00,
2013-12-04 18:26:00,70.7,60.4,29.47,North,358,6.7,6.9,70,0.00,CLR,,0.00,WeatherDisplay:10.37,2013-12-05 00:26:00,
2013-12-04 18:31:00,70.5,60.3,29.47,North,358,6.7,6.9,70,0.00,CLR,,0.00,WeatherDisplay:10.37,2013-12-05 00:31:00,
2013-12-04 18:36:00,70.5,60.7,29.47,North,358,6.7,6.9,71,0.00,CLR,,0.00,WeatherDisplay:10.37,2013-12-05 00:36:00,
2013-12-04 18:41:00,70.2,61.1,29.48,North,358,6.7,6.9,73,0.00,CLR,,0.00,WeatherDisplay:10.37,2013-12-05 00:41:00,
2013-12-04 18:46:00,69.1,56.8,29.49,North,358,6.7,6.9,65,0.00,CLR,,0.00,WeatherDisplay:10.37,2013-12-05 00:46:00,
2013-12-04 18:51:00,67.6,52.3,29.48,North,358,6.7,6.9,58,0.00,CLR,,0.00,WeatherDisplay:10.37,2013-12-05 00:51:00,
2013-12-04 18:56:00,66.6,49.9,29.49,North,358,6.7,6.9,55,0.00,CLR,,0.00,WeatherDisplay:10.37,2013-12-05 00:56:00,
2013-12-04 19:01:00,65.8,49.7,29.49,North,358,6.7,6.9,56,0.00,CLR,,0.00,WeatherDisplay:10.37,2013-12-05 01:01:00,
2013-12-04 19:06:00,65.3,48.7,29.49,North,358,6.7,6.9,55,0.00,CLR,,0.00,WeatherDisplay:10.37,2013-12-05 01:06:00,
2013-12-04 19:11:00,65.1,48.5,29.49,North,358,6.7,6.9,55,0.00,CLR,,0.00,WeatherDisplay:10.37,2013-12-05 01:11:00,
2013-12-04 19:16:00,64.6,48.0,29.49,North,358,6.7,6.9,55,0.00,CLR,,0.00,WeatherDisplay:10.37,2013-12-05 01:16:00,
2013-12-04 19:21:00,64.2,48.2,29.50,North,358,6.7,6.9,56,0.00,CLR,,0.00,WeatherDisplay:10.37,2013-12-05 01:21:00,
2013-12-04 19:26:00,63.9,47.4,29.50,North,358,6.7,6.9,55,0.00,CLR,,0.00,WeatherDisplay:10.37,2013-12-05 01:26:00,
2013-12-04 19:31:00,63.7,46.7,29.51,North,358,6.7,6.9,54,0.00,CLR,,0.00,WeatherDisplay:10.37,2013-12-05 01:31:00,
2013-12-04 19:36:00,63.3,46.9,29.51,North,358,6.7,6.9,55,0.00,CLR,,0.00,WeatherDisplay:10.37,2013-12-05 01:36:00,
2013-12-04 19:41:00,63.0,47.0,29.51,North,358,6.7,6.9,56,0.00,CLR,,0.00,WeatherDisplay:10.37,2013-12-05 01:41:00,
2013-12-04 19:47:00,62.6,47.1,29.51,North,358,6.7,6.9,57,0.00,CLR,,0.00,WeatherDisplay:10.37,2013-12-05 01:47:00,
2013-12-04 19:52:00,62.2,47.7,29.51,North,358,6.7,6.9,59,0.00,CLR,,0.00,WeatherDisplay:10.37,2013-12-05 01:52:00,
2013-12-04 19:57:00,61.9,47.8,29.51,North,358,6.7,6.9,60,0.00,CLR,,0.00,WeatherDisplay:10.37,2013-12-05 01:57:00,
2013-12-04 20:02:00,61.3,47.8,29.52,North,358,6.7,6.9,61,0.00,CLR,,0.00,WeatherDisplay:10.37,2013-12-05 02:02:00,
2013-12-04 20:07:00,61.0,47.9,29.52,North,358,6.7,6.9,62,0.00,CLR,,0.00,WeatherDisplay:10.37,2013-12-05 02:07:00,
2013-12-04 20:12:00,60.6,47.9,29.53,North,358,6.7,6.9,63,0.00,CLR,,0.00,WeatherDisplay:10.37,2013-12-05 02:12:00,
2013-12-04 20:17:00,60.1,47.9,29.52,North,358,6.7,6.9,64,0.00,CLR,,0.00,WeatherDisplay:10.37,2013-12-05 02:17:00,
2013-12-04 20:22:00,59.7,47.5,29.52,North,358,6.7,6.9,64,0.00,CLR,,0.00,WeatherDisplay:10.37,2013-12-05 02:22:00,
2013-12-04 20:27:00,59.4,47.2,29.52,North,358,6.7,6.9,64,0.00,CLR,,0.00,WeatherDisplay:10.37,2013-12-05 02:27:00,
2013-12-04 20:32:00,59.2,47.4,29.53,North,358,6.7,6.9,65,0.00,CLR,,0.00,WeatherDisplay:10.37,2013-12-05 02:32:00,
2013-12-04 20:37:00,58.6,46.9,29.54,North,358,6.7,6.9,65,0.00,CLR,,0.00,WeatherDisplay:10.37,2013-12-05 02:37:00,
2013-12-04 20:42:00,58.1,46.4,29.53,North,358,6.7,6.9,65,0.00,CLR,,0.00,WeatherDisplay:10.37,2013-12-05 02:42:00,
2013-12-04 20:47:00,57.7,45.6,29.53,North,358,6.7,6.9,64,0.00,CLR,,0.00,WeatherDisplay:10.37,2013-12-05 02:47:00,
2013-12-04 20:52:00,57.2,45.1,29.54,North,358,6.7,6.9,64,0.00,CLR,,0.00,WeatherDisplay:10.37,2013-12-05 02:52:00,
2013-12-04 20:57:00,56.7,45.0,29.54,North,358,6.7,6.9,65,0.00,CLR,,0.00,WeatherDisplay:10.37,2013-12-05 02:57:00,
2013-12-04 21:02:00,56.3,45.1,29.55,North,358,6.7,6.9,66,0.00,SCT,,0.00,WeatherDisplay:10.37,2013-12-05 03:02:00,
2013-12-04 21:07:00,56.1,45.3,29.55,North,358,6.7,6.9,67,0.00,SCT,,0.00,WeatherDisplay:10.37,2013-12-05 03:07:00,
2013-12-04 21:12:00,55.9,45.1,29.55,North,358,6.7,6.9,67,0.00,SCT,,0.00,WeatherDisplay:10.37,2013-12-05 03:12:00,
2013-12-04 21:17:00,55.8,45.4,29.56,North,358,6.7,6.9,68,0.00,SCT,,0.00,WeatherDisplay:10.37,2013-12-05 03:17:00,
2013-12-04 21:22:00,55.4,44.6,29.56,North,358,6.7,6.9,67,0.00,SCT,,0.00,WeatherDisplay:10.37,2013-12-05 03:22:00,
2013-12-04 21:27:00,55.0,43.9,29.57,North,358,6.7,6.9,66,0.00,SCT,,0.00,WeatherDisplay:10.37,2013-12-05 03:27:00,
2013-12-04 21:32:00,54.7,43.5,29.57,North,358,6.7,6.9,66,0.00,SCT,,0.00,WeatherDisplay:10.37,2013-12-05 03:32:00,
2013-12-04 21:37:00,54.3,43.2,29.56,North,358,6.7,6.9,66,0.00,SCT,,0.00,WeatherDisplay:10.37,2013-12-05 03:37:00,
2013-12-04 21:42:00,54.1,43.4,29.57,North,358,6.7,6.9,67,0.00,SCT,,0.00,WeatherDisplay:10.37,2013-12-05 03:42:00,
2013-12-04 21:47:00,54.0,42.9,29.56,North,358,6.7,6.9,66,0.00,SCT,,0.00,WeatherDisplay:10.37,2013-12-05 03:47:00,
2013-12-04 21:52:00,53.6,42.5,29.57,North,358,6.7,6.9,66,0.00,SCT,,0.00,WeatherDisplay:10.37,2013-12-05 03:52:00,
2013-12-04 21:57:00,53.2,41.8,29.57,North,358,6.7,6.9,65,0.00,SCT,,0.00,WeatherDisplay:10.37,2013-12-05 03:57:00,
2013-12-04 22:02:00,52.9,41.8,29.57,North,358,6.7,6.9,66,0.00,BKN,,0.00,WeatherDisplay:10.37,2013-12-05 04:02:00,
2013-12-04 22:07:00,52.7,41.7,29.57,North,358,6.7,6.9,66,0.00,BKN,,0.00,WeatherDisplay:10.37,2013-12-05 04:07:00,
2013-12-04 22:12:00,52.5,41.1,29.58,North,358,6.7,6.9,65,0.00,BKN,,0.00,WeatherDisplay:10.37,2013-12-05 04:12:00,
2013-12-04 22:17:00,52.2,41.1,29.57,North,358,6.7,6.9,66,0.00,BKN,,0.00,WeatherDisplay:10.37,2013-12-05 04:17:00,
2013-12-04 22:22:00,52.0,41.0,29.58,North,358,6.7,6.9,66,0.00,BKN,,0.00,WeatherDisplay:10.37,2013-12-05 04:22:00,
2013-12-04 22:27:00,51.8,40.8,29.58,North,358,6.7,6.9,66,0.00,BKN,,0.00,WeatherDisplay:10.37,2013-12-05 04:27:00,
2013-12-04 22:32:00,51.6,40.6,29.58,North,358,6.7,6.9,66,0.00,BKN,,0.00,WeatherDisplay:10.37,2013-12-05 04:32:00,
2013-12-04 22:37:00,51.4,40.8,29.57,North,358,6.7,6.9,67,0.00,BKN,,0.00,WeatherDisplay:10.37,2013-12-05 04:37:00,
2013-12-04 22:42:00,51.4,40.8,29.57,North,358,6.7,6.9,67,0.00,BKN,,0.00,WeatherDisplay:10.37,2013-12-05 04:42:00,
2013-12-04 22:47:00,50.9,39.9,29.58,North,358,6.7,6.9,66,0.00,BKN,,0.00,WeatherDisplay:10.37,2013-12-05 04:47:00,
2013-12-04 22:52:00,50.5,40.0,29.59,North,358,6.7,6.9,67,0.00,BKN,,0.00,WeatherDisplay:10.37,2013-12-05 04:52:00,
2013-12-04 22:57:00,50.4,39.0,29.59,North,358,6.7,6.9,65,0.00,BKN,,0.00,WeatherDisplay:10.37,2013-12-05 04:57:00,
2013-12-04 23:01:00,50.4,39.0,29.59,North,358,6.7,6.9,65,0.00,CLR,,0.00,WeatherDisplay:10.37,2013-12-05 05:01:00,
2013-12-04 23:02:00,50.2,38.9,29.59,North,358,6.7,6.9,65,0.00,CLR,,0.00,WeatherDisplay:10.37,2013-12-05 05:02:00,
2013-12-04 23:03:00,50.2,38.9,29.59,North,358,6.7,6.9,65,0.00,CLR,,0.00,WeatherDisplay:10.37,2013-12-05 05:03:00,
2013-12-04 23:04:00,50.2,38.9,29.60,North,358,6.7,6.9,65,0.00,CLR,,0.00,WeatherDisplay:10.37,2013-12-05 05:04:00,
2013-12-04 23:09:00,50.2,39.3,29.60,North,358,6.7,6.9,66,0.00,CLR,,0.00,WeatherDisplay:10.37,2013-12-05 05:09:00,
2013-12-04 23:14:00,50.0,38.7,29.61,North,358,6.7,6.9,65,0.00,CLR,,0.00,WeatherDisplay:10.37,2013-12-05 05:14:00,
2013-12-04 23:19:00,49.6,38.3,29.61,North,358,6.7,6.9,65,0.00,CLR,,0.00,WeatherDisplay:10.37,2013-12-05 05:19:00,
2013-12-04 23:24:00,49.3,38.0,29.61,North,358,6.7,6.9,65,0.00,CLR,,0.00,WeatherDisplay:10.37,2013-12-05 05:24:00,
2013-12-04 23:29:00,49.1,37.8,29.60,North,358,6.7,6.9,65,0.00,CLR,,0.00,WeatherDisplay:10.37,2013-12-05 05:29:00,
2013-12-04 23:34:00,48.9,37.7,29.60,North,358,6.7,6.9,65,0.00,CLR,,0.00,WeatherDisplay:10.37,2013-12-05 05:34:00,
2013-12-04 23:39:00,48.6,37.3,29.60,North,358,6.7,6.9,65,0.00,CLR,,0.00,WeatherDisplay:10.37,2013-12-05 05:39:00,
2013-12-04 23:44:00,48.4,37.2,29.61,North,358,6.7,6.9,65,0.00,CLR,,0.00,WeatherDisplay:10.37,2013-12-05 05:44:00,
2013-12-04 23:49:00,48.2,37.0,29.61,North,358,6.7,6.9,65,0.00,CLR,,0.00,WeatherDisplay:10.37,2013-12-05 05:49:00,
2013-12-04 23:54:00,47.8,37.0,29.61,North,358,6.7,6.9,66,0.00,CLR,,0.00,WeatherDisplay:10.37,2013-12-05 05:54:00,
2013-12-04 23:59:00,47.7,36.9,29.59,North,358,6.7,6.9,66,0.00,CLR,,0.00,WeatherDisplay:10.37,2013-12-05 05:59:00,